Volver al catálogo

THORAD AGENA D DEB

ActivoSSO
NORAD 4986·DEBRIS·🇺🇸 United States

Lanzado Apr 8, 1970 desde Vandenberg Space Force Base

Loading…

Próximos Pases

TLE

Source: Space-Track
1 04986U 70025HG  26228.55752642  .00000009  00000-0  91095-4 0  9994
2 04986  99.7410 113.1694 0053127 282.3143 195.4571 13.42948234758726

Sigue THORAD AGENA D DEB en tiempo real con AllMySat

Download on the App Store